Regional Weather Roundup
Issued by NWS

Home | Current Version | Previous Version | Graphics & Text | Print | Product List | Glossary Off
Versions: 1 2 3 4 5 6 7 8 9 10 11 12 13 14 15 16 17 18 19 20 21 22 23 24 25 26 27 28 29 30 31 32 33 34 35 36 37 38 39 40 41 42 43 44 45 46 47 48 49 50

000
ASUS43 KTOP 292208
RWRKS

WEATHER ROUNDUP FOR KANSAS
NATIONAL WEATHER SERVICE GOODLAND KS
400 PM CST THU JAN 29 2015

NOTE:  "FAIR" INDICATES FEW OR NO CLOUDS BELOW 12,000 FEET WITH NO
SIGNIFICANT WEATHER AND/OR OBSTRUCTIONS TO VISIBILITY.

KSZ001>006-013>018-027>032-041>047-292300-
NORTHWEST KANSAS

CITY           SKY/WX    TMP DP  RH WIND       PRES   REMARKS
GOODLAND       SUNNY     48  18  30 N12       30.46S
HAYS           SUNNY     46  23  39 N13       30.48R
HILL CITY      SUNNY     48  23  37 N8        30.48R
RUSSELL        SUNNY     49  25  39 N15       30.45S
$$

KSZ061>065-074>080-084>089-292300-
SOUTHWEST KANSAS

CITY           SKY/WX    TMP DP  RH WIND       PRES   REMARKS
DODGE CITY     SUNNY     49  21  33 N15       30.47S
ELKHART          N/A     50  27  41 NE7         N/A
GARDEN CITY    SUNNY     48  21  34 N10       30.46S
LIBERAL        MOSUNNY   52  23  32 N15       30.48S
PRATT          SUNNY     48  23  37 N13       30.48R
$$

KSZ066>073-081>083-090>101-292300-
SOUTHEAST KANSAS

CITY           SKY/WX    TMP DP  RH WIND       PRES   REMARKS
CHANUTE        MOSUNNY   48  29  47 N16G22    30.42R
COFFEYVILLE    SUNNY     49  29  46 N18       30.42R
HUTCHINSON     SUNNY     50  25  37 N16G24    30.46R
MEDICINE LODGE   N/A     51  25  36 N14G22    30.46R
NEWTON         SUNNY     46  25  42 N16G24    30.46R
PARSONS        PTSUNNY   50  29  44 N16G26    30.43R
WICHITA INTL   MOSUNNY   50  25  37 N15       30.45R
WICHITA JABRA  SUNNY     49  26  41 N16G25    30.44R
WICHITA MCCONL SUNNY     49  27  41 N14       30.45R
WINFIELD       SUNNY     50  26  39 N17       30.45R
$$

KSZ007>012-019>026-033>040-048>060-102>105-292300-
NORTHEAST KANSAS

CITY           SKY/WX    TMP DP  RH WIND       PRES   REMARKS
CONCORDIA      SUNNY     46  25  43 N15       30.45S
EMPORIA        MOSUNNY   45  26  47 N18       30.43R
LAWRENCE       MOSUNNY   45  26  47 N20G26    30.42R
MANHATTAN      SUNNY     45  27  49 N12       30.46R
MARYSVILLE     MOSUNNY   43  28  56 N13G18    30.44S
OLATHE IND     PTSUNNY   42  27  55 NW21G30   30.42R
OLATHE EXE     CLOUDY    42  27  55 N14       30.40R
SALINA         SUNNY     50  25  37 N14       30.47R
TOPEKA BILLARD PTSUNNY   43  26  51 N16       30.44R
TOPEKA FORBES  PTSUNNY   45  26  47 N18       30.43R
$$


USA.gov is the U.S. government's official web portal to all federal, state and local government web resources and services.